Location: 22
(39.7117°N, 89.5929°W)
Time: 08:38:22
(UTC-05:00)

Transit 2A - Pass Details

Date: 11 August 2024
Orbit: 590 x 961 km, 66.7° (Epoch: 13 September)

Event Time Altitude Azimuth Distance (km) Brightness Sun altitude
Rises 04:44:35 0° 235° (SW) 3,245 - -14.9°
Reaches altitude 10° 04:47:05 10° 244° (WSW) 2,381 - -14.5°
Exits shadow 04:48:47 19° 256° (WSW) 1,867 7.4 -14.2°
Maximum altitude 04:52:07 35° 309° (NW) 1,364 7.1 -13.7°
Drops below altitude 10° 04:57:37 10° 14° (NNE) 2,604 9.4 -12.8°
Sets 05:00:29 0° 24° (NNE) 3,590 10.5 -12.4°
